HADES-ICM

Last updated on Sun Apr 12 2026 00:03:16 GMT+0000 (Coordinated Universal Time)

1 63492U 25052BN 26101.16555409 .00216216 00000+0 17711-2 0 9999 2 63492 97.3871 3.0638 0004795 77.7188 282.4611 15.69838648 60215
UTC large
Height (km)
Speed (km/s)
/
Latitude / Longitude
Inclination (degrees)
Orbital Period (minutes)
Azimuth
Elevation
Range (km)
Doppler Factor

Next 0 passes for location: London (51.5072 / 0.1276)

No passes found over London.
HADES-ICM